This is the latest recevied weather packets stored in our database for station/object KD5BIG-13. If no packets are shown the sender has not sent any weather packets the latest 10 day(s).
| Time | Temp. | Humidity | Pressure | Rain* | Wind** | Luminosity | Snow |
|---|---|---|---|---|---|---|---|
| 1778077161 | 23.89° C | 91% | 1016.6 hPa | - | - | 113 W/m² | - |
| 1778076859 | 23.89° C | 92% | 1016.6 hPa | - | - | 91 W/m² | - |
| 1778076557 | 23.89° C | 91% | 1016.6 hPa | - | - | 84 W/m² | - |
| 1778076254 | 23.89° C | 91% | 1016.5 hPa | - | - | 82 W/m² | - |
| 1778075951 | 23.89° C | 92% | 1016.4 hPa | - | - | 65 W/m² | - |
| 1778075648 | 23.89° C | 92% | 1016.6 hPa | - | - | 66 W/m² | - |
| 1778075344 | 23.33° C | 92% | 1016.5 hPa | - | - | 56 W/m² | - |
| 1778075040 | 23.33° C | 92% | 1016.3 hPa | - | - | 70 W/m² | - |
| 1778074737 | 23.33° C | 93% | 1016.2 hPa | - | - | 61 W/m² | - |
| 1778074434 | 23.33° C | 92% | 1016.5 hPa | - | - | 53 W/m² | - |
| 1778074130 | 23.33° C | 93% | 1016.3 hPa | - | - | 56 W/m² | - |
| 1778073828 | 23.33° C | 93% | 1016.4 hPa | - | - | 48 W/m² | - |
| 1778073526 | 23.33° C | 93% | 1016.4 hPa | - | - | 58 W/m² | - |
| 1778073222 | 22.78° C | 94% | 1016.3 hPa | - | - | 71 W/m² | - |
| 1778072919 | 22.78° C | 94% | 1016.3 hPa | - | - | 43 W/m² | - |
| 1778072615 | 22.78° C | 94% | 1016 hPa | - | - | 55 W/m² | - |
| 1778072313 | 22.78° C | 94% | 1015.9 hPa | - | - | 38 W/m² | - |
| 1778072012 | 22.78° C | 94% | 1016.1 hPa | - | - | 23 W/m² | - |
| 1778071710 | 22.78° C | 94% | 1015.9 hPa | - | - | 23 W/m² | - |
| 1778071406 | 22.78° C | 94% | 1015.7 hPa | - | - | 27 W/m² | - |
| 1778071104 | 22.22° C | 94% | 1015.8 hPa | - | - | 19 W/m² | - |
| 1778070802 | 22.22° C | 94% | 1015.8 hPa | - | - | 32 W/m² | - |
| 1778070499 | 22.22° C | 94% | 1015.5 hPa | - | - | 31 W/m² | - |
| 1778070196 | 22.22° C | 94% | 1015.7 hPa | - | - | 28 W/m² | - |
| 1778069894 | 22.22° C | 94% | 1015.6 hPa | - | - | 27 W/m² | - |
* Rain since midnight (hover to see other rain measurements)
** Current wind speed in m/s (hover to see current wind gust speed)